Location: Lynch Observatory
(39.9540°N, 75.1861°W)
Time: 00:23:22
(UTC-04:00)

DOVE 4 - Pass Details

Date: 29 April 2024
Orbit: 582 x 778 km, 97.7° (Epoch: 27 May)

Event Time Altitude Azimuth Distance (km) Brightness Sun altitude
Rises 22:16:01 0° 18° (NNE) 2,965 ? -23.5°
Reaches altitude 10° 22:18:15 10° 23° (NNE) 2,081 ? -23.8°
Enters shadow 22:21:38 42° 59° (ENE) 970 ? -24.2°
